Wind_Speed
40 40 40 40 40 40 41 42 42 43 44 46 47 49 50 52 53 54 55 55 54 54 54 53 53 52 50 48 46 44 43 43 43 40 39 38 38 36 35 33 30 27 25
42 42 41 41 40 40 41 42 43 44 46 48 50 52 53 55 57 59 60 60 60 59 58 57 57 56 55 52 50 48 46 45 45 43 41 40 39 39 38 36 33 31 28
43 43 42 41 41 42 43 44 45 47 49 50 52 54 56 58 60 61 62 63 63 62 62 61 61 60 59 57 54 52 49 48 47 47 45 43 42 41 40 38 36 34 32
44 43 43 42 42 43 45 46 47 48 50 51 53 54 56 58 59 60 61 62 63 62 62 63 63 63 62 61 59 57 54 51 50 49 48 46 44 43 42 40 39 37 35
44 44 43 42 43 44 45 46 48 49 51 52 53 53 54 54 55 56 58 59 60 61 61 62 63 64 64 64 63 61 59 56 52 51 50 49 47 45 44 43 41 40 37
45 44 43 43 44 45 46 47 48 50 50 51 51 50 49 49 49 50 52 53 55 56 57 58 60 63 65 65 64 63 62 60 57 54 51 50 48 47 46 45 43 42 40
45 45 44 44 44 45 46 48 49 49 49 48 47 47 46 45 44 44 45 47 49 50 51 53 56 58 62 64 65 64 64 62 60 57 55 52 51 48 47 46 45 44 42
46 45 44 44 44 45 47 48 49 47 46 45 45 44 43 41 39 38 38 39 42 45 47 50 52 53 56 60 63 64 64 64 62 60 58 55 53 51 49 48 46 45 44
45 44 44 44 44 45 47 48 47 45 44 43 42 40 37 34 32 31 30 31 34 38 42 45 48 49 50 53 58 61 63 64 64 62 60 58 55 51 50 49 47 45 43
45 44 43 43 45 45 46 46 44 42 41 40 38 35 33 30 27 25 24 24 26 30 35 40 44 44 45 47 51 55 59 61 62 62 61 60 57 54 51 49 48 47 44
44 43 43 43 44 45 46 44 42 40 39 38 36 32 29 26 23 20 18 19 21 24 28 33 38 40 42 43 45 49 53 57 59 60 60 60 59 55 51 49 47 45 44
44 43 42 43 44 45 44 42 39 38 37 35 33 30 27 23 19 15 13 14 16 20 24 29 33 36 37 39 41 44 48 52 55 56 58 57 57 56 54 50 47 44 43
43 42 41 42 43 44 42 39 38 37 35 32 30 27 23 19 15 10 8 9 13 17 20 25 28 31 33 35 37 39 42 46 51 54 54 54 53 54 54 51 47 45 42
43 42 41 41 42 42 40 38 37 35 32 31 28 24 20 16 12 8 5 7 11 15 19 22 25 27 28 30 33 35 37 41 45 49 51 52 51 51 51 50 49 46 43
43 41 40 41 42 41 39 37 35 33 31 29 26 21 17 14 10 7 3 5 9 13 16 20 22 23 25 26 29 31 33 36 40 43 46 48 50 48 49 49 48 46 43
42 40 40 40 40 40 38 36 34 32 29 27 24 20 15 12 9 5 1 3 7 11 15 19 20 21 22 24 27 29 31 33 36 40 42 44 46 47 46 46 46 46 44
42 40 39 39 39 38 36 34 32 30 28 25 22 18 14 10 7 4 1 4 8 11 13 15 18 19 20 23 25 27 29 32 34 37 40 42 44 45 45 44 44 43 43
41 40 39 38 37 37 35 34 32 30 27 24 21 17 12 9 6 3 1 4 8 10 12 14 16 17 19 21 23 25 28 30 33 36 39 41 42 43 44 44 43 42 41
40 39 37 37 36 36 35 33 30 28 26 23 19 16 12 8 6 3 1 4 7 9 11 13 15 16 18 20 21 23 26 28 31 36 38 40 42 43 43 43 42 41 41
39 38 36 35 35 35 34 32 29 27 25 22 18 15 11 8 5 3 1 3 6 8 10 13 15 16 17 19 20 22 25 26 29 34 37 40 42 42 43 42 42 42 40
38 36 35 34 34 34 33 31 29 27 24 21 18 15 11 8 5 3 2 3 5 7 10 12 15 16 18 19 20 22 24 25 28 33 36 38 41 43 44 44 44 43 41
37 35 33 32 32 33 32 30 28 26 24 21 19 16 12 9 7 4 3 3 4 6 9 10 12 15 17 19 21 22 23 25 29 32 36 37 39 42 43 43 43 43 42
35 33 32 30 30 31 30 29 26 25 24 22 19 17 14 10 8 6 4 4 4 6 8 11 12 14 15 17 19 21 23 24 28 32 35 37 39 41 41 42 42 42 41
34 32 30 28 28 28 28 27 25 23 23 21 19 18 15 13 11 8 6 3 3 5 7 9 11 12 13 15 17 20 21 23 26 31 33 35 38 39 40 42 42 42 39
33 30 28 26 25 25 26 25 23 22 22 21 19 18 16 14 12 10 8 6 3 3 5 7 9 11 13 15 16 18 18 21 26 29 32 35 37 39 41 41 41 40 36
31 28 26 24 22 22 23 22 22 21 20 20 19 18 17 16 14 12 10 8 5 2 2 4 8 10 13 16 17 18 19 22 26 29 32 33 36 37 39 38 37 36 34
Wind_Direction
314 311 308 304 301 297 294 292 290 288 286 285 283 281 278 276 273 271 268 265 262 259 255 251 249 247 246 245 242 239 234 231 228 225 221 219 218 217 216 214 214 216 219
316 313 310 307 304 300 297 295 293 291 289 286 284 281 278 275 272 270 267 264 261 257 253 249 247 245 243 242 240 237 234 230 227 225 222 220 219 218 217 216 215 218 221
318 315 312 309 306 303 301 299 297 294 292 290 287 283 280 276 273 269 266 263 260 256 252 247 244 242 240 239 238 236 233 230 227 225 223 221 221 220 219 217 217 219 222
319 316 313 310 308 306 304 303 301 299 297 294 291 287 283 279 274 269 265 261 258 254 250 246 242 240 238 236 235 234 232 230 228 226 224 222 222 222 221 219 218 220 222
321 319 315 313 311 310 309 307 306 304 302 299 296 292 288 282 276 270 264 260 256 252 248 244 241 238 236 235 233 232 231 229 228 226 224 223 223 223 222 221 220 220 222
323 321 318 316 315 314 313 312 310 309 307 304 300 296 292 287 280 272 266 260 254 250 246 242 239 237 234 233 232 230 229 228 227 227 224 222 223 223 223 222 221 220 222
325 323 321 319 319 317 317 316 315 313 311 308 304 301 297 291 284 276 268 259 252 247 242 239 236 235 233 231 230 229 228 227 227 227 225 222 222 222 223 222 221 220 221
327 325 323 322 322 321 321 320 319 318 316 312 309 306 302 296 288 280 271 260 251 243 238 235 233 233 231 230 228 228 227 227 226 225 226 224 223 223 224 222 221 220 220
329 327 326 325 325 325 324 324 323 321 319 317 315 312 308 301 293 284 273 258 247 240 236 232 229 228 227 227 227 227 226 226 225 225 225 225 224 224 224 225 223 221 221
331 330 328 328 328 328 328 327 327 325 324 323 321 318 314 307 299 289 275 258 245 237 232 227 224 223 223 223 224 225 225 224 224 224 224 224 224 224 224 224 224 221 220
333 332 331 330 331 331 331 331 330 329 329 328 327 324 319 313 306 294 276 257 241 232 226 220 217 218 219 219 220 222 223 223 223 223 222 223 224 224 223 223 224 223 221
335 333 333 333 333 334 334 333 332 332 332 332 332 330 325 320 316 301 275 250 232 222 217 213 212 213 214 215 216 218 221 221 221 222 221 220 222 225 225 224 225 225 221
336 335 335 335 335 336 337 336 336 336 336 336 336 336 333 328 325 312 275 237 219 211 207 206 207 209 210 213 214 215 218 219 220 220 220 219 220 223 225 224 224 223 221
338 337 337 337 338 339 339 339 339 339 338 339 339 340 339 338 335 325 283 231 212 204 200 198 200 202 206 208 209 211 214 216 217 218 219 220 220 220 220 221 223 223 222
340 339 339 340 341 341 342 342 341 340 340 341 342 342 341 340 338 335 307 215 199 193 191 192 194 196 199 201 204 206 208 209 212 214 215 217 218 219 220 219 221 223 223
342 341 340 341 343 344 344 344 343 342 342 342 345 347 346 344 342 341 329 180 177 180 184 186 188 190 194 197 199 201 202 203 205 208 209 211 215 217 218 219 222 224 225
343 343 342 343 345 347 347 347 346 345 345 345 347 349 350 351 350 347 293 185 181 181 182 185 187 190 194 196 196 197 197 198 200 202 204 206 208 212 214 216 217 220 221
344 343 344 345 347 348 349 349 348 348 348 348 349 351 350 349 352 350 229 188 188 188 189 192 192 194 196 196 196 196 194 194 197 198 198 199 202 205 209 211 213 215 217
344 344 345 347 348 349 351 351 351 350 350 350 352 352 351 348 345 342 264 195 194 195 197 197 195 195 196 196 196 196 195 194 196 195 195 198 200 202 204 206 209 210 212
344 344 346 348 349 350 352 352 352 351 351 352 353 355 354 353 348 330 262 207 199 200 204 202 202 201 201 200 200 199 196 194 195 195 194 196 197 199 200 202 203 205 207
344 345 346 348 350 352 353 353 353 353 354 355 357 357 356 356 352 338 281 230 217 213 210 208 209 210 210 209 207 204 201 199 195 193 194 195 197 197 197 198 200 201 203
344 345 346 348 351 353 354 355 356 358 360 359 360 2 3 1 356 343 310 267 241 223 212 208 209 210 210 209 207 207 206 203 198 196 194 194 195 194 194 195 197 199 201
343 344 345 347 350 353 355 358 360 2 4 3 4 6 7 7 3 352 325 286 255 229 215 210 209 210 211 211 210 206 203 202 201 198 196 194 191 192 194 195 195 196 199
342 343 344 346 349 353 355 358 1 3 4 6 8 9 10 11 9 2 352 326 266 232 220 215 212 212 210 209 206 200 198 199 199 197 193 191 189 188 190 192 193 194 196
341 341 342 344 347 352 355 359 3 5 6 8 9 13 16 14 13 10 4 354 327 253 231 219 213 208 204 199 194 192 190 189 189 189 187 185 185 186 187 189 191 193 196
339 339 340 342 345 349 354 359 3 5 7 11 13 18 20 22 24 20 20 22 26 46 128 175 189 190 185 182 181 180 178 177 178 179 180 179 179 180 182 184 188 191 194
Height
5741 5735 5729 5724 5719 5714 5711 5707 5703 5700 5697 5694 5691 5688 5686 5685 5683 5683 5684 5686 5688 5691 5695 5700 5705 5711 5716 5722 5728 5735 5742 5748 5755 5761 5768 5774 5779 5786 5791 5796 5801 5806 5810
5731 5725 5719 5713 5708 5703 5699 5694 5690 5686 5683 5679 5675 5672 5669 5667 5665 5664 5665 5666 5669 5673 5677 5683 5689 5695 5702 5709 5715 5722 5730 5737 5744 5751 5758 5764 5770 5776 5782 5788 5794 5799 5804
5721 5714 5708 5702 5697 5692 5686 5681 5676 5671 5667 5662 5657 5653 5650 5646 5644 5643 5643 5644 5647 5651 5657 5663 5670 5678 5686 5694 5702 5709 5717 5725 5732 5740 5748 5755 5760 5767 5773 5780 5786 5792 5797
5712 5705 5698 5692 5686 5680 5674 5668 5662 5655 5649 5644 5638 5633 5628 5624 5621 5619 5619 5621 5624 5629 5634 5642 5650 5659 5667 5676 5685 5694 5703 5712 5720 5728 5737 5744 5750 5757 5764 5771 5778 5784 5790
5702 5695 5687 5681 5674 5667 5660 5654 5646 5639 5632 5625 5618 5611 5605 5600 5597 5595 5595 5597 5601 5606 5612 5620 5629 5638 5648 5658 5668 5679 5688 5698 5707 5716 5725 5733 5740 5747 5755 5762 5769 5775 5781
5692 5685 5677 5670 5663 5655 5648 5640 5631 5623 5615 5606 5598 5591 5585 5579 5575 5573 5573 5575 5579 5584 5592 5599 5608 5617 5628 5640 5651 5662 5673 5683 5694 5703 5713 5721 5729 5737 5745 5752 5760 5767 5773
5683 5675 5667 5659 5652 5643 5635 5626 5617 5608 5599 5590 5581 5573 5567 5561 5556 5553 5552 5554 5558 5565 5572 5580 5589 5599 5609 5621 5633 5645 5657 5668 5680 5691 5700 5709 5718 5727 5735 5742 5749 5757 5765
5674 5666 5657 5649 5641 5632 5623 5614 5604 5594 5585 5575 5567 5558 5551 5545 5540 5537 5535 5536 5541 5548 5555 5564 5573 5582 5593 5604 5616 5628 5641 5653 5666 5678 5689 5698 5706 5715 5723 5731 5738 5747 5755
5666 5657 5648 5640 5632 5622 5613 5603 5593 5583 5573 5563 5554 5546 5538 5532 5527 5524 5522 5523 5527 5533 5541 5549 5558 5568 5579 5590 5601 5614 5626 5638 5650 5662 5674 5685 5695 5704 5712 5721 5729 5738 5746
5658 5649 5640 5632 5623 5613 5603 5593 5583 5573 5563 5554 5545 5536 5529 5523 5518 5514 5512 5513 5516 5522 5528 5536 5546 5556 5566 5576 5588 5599 5612 5624 5637 5650 5661 5673 5683 5692 5702 5710 5719 5728 5736
5651 5642 5633 5624 5615 5605 5595 5585 5575 5565 5556 5547 5538 5529 5522 5516 5511 5508 5506 5507 5509 5514 5520 5527 5537 5546 5556 5566 5576 5588 5599 5611 5624 5636 5649 5660 5671 5682 5691 5700 5709 5719 5728
5644 5636 5627 5617 5608 5598 5588 5578 5568 5559 5550 5541 5533 5525 5517 5511 5507 5503 5502 5502 5504 5508 5514 5521 5529 5538 5547 5557 5567 5577 5588 5600 5612 5625 5637 5649 5661 5672 5682 5690 5699 5709 5718
5639 5630 5621 5612 5602 5592 5582 5572 5563 5554 5546 5537 5529 5522 5515 5509 5505 5502 5500 5501 5502 5506 5511 5517 5524 5532 5541 5550 5559 5569 5579 5590 5602 5614 5627 5639 5650 5661 5671 5681 5689 5699 5708
5633 5624 5616 5606 5597 5587 5577 5568 5559 5550 5542 5534 5527 5520 5514 5509 5505 5503 5501 5501 5502 5505 5509 5515 5522 5529 5537 5545 5553 5562 5572 5582 5593 5604 5616 5628 5639 5650 5660 5671 5681 5691 5700
5629 5620 5611 5602 5592 5583 5573 5564 5556 5548 5540 5533 5526 5519 5514 5510 5507 5504 5502 5502 5504 5506 5510 5515 5521 5528 5534 5541 5549 5556 5565 5574 5584 5595 5606 5618 5630 5640 5651 5661 5671 5682 5692
5625 5616 5607 5598 5589 5579 5570 5562 5553 5546 5538 5531 5525 5519 5515 5511 5508 5506 5505 5505 5506 5508 5512 5516 5521 5526 5532 5538 5545 5552 5559 5568 5577 5587 5598 5609 5621 5632 5642 5652 5663 5673 5683
5621 5612 5603 5595 5586 5577 5568 5559 5552 5545 5537 5531 5525 5520 5516 5512 5510 5508 5507 5507 5508 5511 5514 5517 5521 5526 5530 5536 5542 5548 5555 5563 5571 5580 5591 5602 5612 5623 5634 5644 5655 5665 5675
5617 5609 5600 5592 5583 5575 5566 5558 5551 5544 5537 5531 5525 5521 5517 5514 5512 5510 5509 5509 5511 5513 5515 5518 5521 5525 5529 5534 5539 5545 5552 5558 5566 5575 5584 5594 5604 5615 5626 5637 5647 5657 5667
5615 5606 5598 5590 5582 5573 5565 5557 5550 5543 5537 5531 5526 5522 5518 5515 5513 5512 5511 5511 5512 5514 5516 5518 5521 5525 5528 5533 5538 5543 5548 5555 5562 5570 5579 5588 5598 5608 5619 5629 5639 5649 5659
5612 5604 5596 5589 5581 5573 5565 5557 5550 5544 5537 5532 5527 5523 5519 5517 5515 5514 5513 5513 5514 5515 5517 5519 5521 5524 5528 5532 5536 5540 5546 5552 5558 5565 5574 5583 5592 5602 5612 5622 5632 5642 5652
5610 5602 5595 5587 5580 5572 5565 5557 5550 5544 5538 5533 5528 5524 5521 5518 5516 5515 5514 5514 5514 5515 5516 5518 5521 5523 5526 5530 5534 5538 5543 5549 5554 5561 5569 5577 5587 5596 5606 5616 5626 5636 5645
5608 5601 5594 5587 5580 5572 5565 5558 5551 5545 5539 5534 5529 5525 5522 5519 5517 5516 5515 5515 5514 5515 5516 5517 5519 5521 5524 5527 5531 5535 5540 5545 5550 5557 5564 5573 5581 5591 5600 5610 5620 5630 5638
5606 5599 5592 5586 5580 5573 5566 5559 5553 5547 5542 5536 5531 5527 5523 5520 5518 5516 5515 5514 5514 5514 5515 5516 5518 5520 5522 5525 5528 5532 5536 5541 5546 5553 5560 5568 5577 5586 5596 5606 5615 5625 5634
5604 5597 5591 5585 5580 5574 5567 5561 5555 5549 5544 5538 5534 5529 5525 5522 5519 5517 5515 5514 5513 5513 5514 5514 5516 5518 5520 5523 5526 5529 5533 5538 5543 5549 5557 5565 5574 5583 5592 5602 5612 5621 5630
5602 5596 5590 5585 5580 5574 5568 5563 5557 5551 5546 5541 5536 5532 5528 5524 5521 5518 5516 5514 5513 5512 5512 5513 5514 5516 5518 5521 5524 5528 5532 5536 5541 5548 5555 5563 5572 5581 5590 5600 5609 5618 5626
5600 5594 5588 5584 5579 5575 5570 5564 5559 5554 5549 5544 5539 5535 5531 5528 5524 5521 5518 5516 5514 5513 5512 5513 5514 5516 5518 5521 5524 5528 5532 5537 5542 5549 5556 5564 5573 5581 5590 5599 5608 5617 5624